SCP
0 0 0 0 0 0 0 0 0 0 0 0 0 0 0 0 0 0 0 0 0 0 0 0 0 0 0 0 0 0 0 0 0 0 0 0 0 0 0 0 0 0 0
0 0 0 0 0 0 0 0 0 0 0 0 0 0 0 0 0 0 0 0 0 0 0 0 0 0 0 0 0 0 0 0 0 0 0 0 0 0 0 0 0 0 0
0 0 0 0 0 0 0 0 0 0 0 0 0 0 0 0 0 0 0 0 0 0 0 0 0 0 0 0 0 0 0 0 0 0 0 0 0 0 0 0 0 0 0
0 0 0 0 0 0 0 0 0 0 0 0 0 0 -0 -0 0 0 0 0 0 0 0 0 0 0 0 0 0 0 0 0 0 0 0 0 0 0 0 0 0 0 0
0 0 0 0 0 0 0 0 0 0 0 0 0 0 -0 0 0 0 0 0 0 0 0 0 0 0 0 0 0 0 0 0 0 0 0 0 0 0 0 0 0 0 0
0 0 0 0 0 0 0 0 0 0 0 0 0 0 0 0 0 0 0 0 0 0 0 0 0 0 0 0 0 0 0 0 0 0 0 0 0 0 0 0 0 0 0
0 0 0 0 0 0 0 0 0 0 0 0 0 0 0 0 0 0 0 0 0 0 0 0 0 0 0 0 0 0 0 0 0 0 0 0 0 0 0 0 0 0 0
0 0 0 0 0 0 0 0 0 0 0 0 0 0 0 0 0 0 0 0 0 0 0 0 0 0 0 0 0 0 0 0 0 0 0 0 0 0 0 0 0 0 0
0 0 0 0 0 0 0 0 0 0 0 0 0 0 0 0 0 0 0 0 0 0 0 0 0 0 0 0 0 0 0 0 0 0 0 0 0 0 0 0 0 0 0
0 0 0 0 0 0 0 0 0 0 0 0 0 0 0 0 0 0 0 0 0 0 0 0 0 0 0 0 0 0 0 0 0 0 0 0 0 0 0 0 0 0 0
0 0 0 0 0 0 0 0 0 0 0 0 0 0 0 0 0 0 0 0 0 0 0 0 0 0 0 0 0 0 0 0 0 0 0 0 0 0 0 0 0 0 0
0 0 0 0 0 0 0 0 0 0 0 0 0 0 0 0 0 0 0 0 0 0 0 0 0 0 0 0 0 0 0 0 0 0 0 0 0 0 0 0 0 0 0
0 0 0 0 0 0 0 0 0 0 0 0 0 0 0 0 0 0 0 0 0 0 0 0 0 0 0 0 0 0 0 0 0 0 0 0 0 0 0 0 0 0 0
0 0 0 0 0 0 0 0 0 0 0 0 0 0 0 0 0 0 0 0 0 0 0 0 0 0 0 0 0 0 0 0 0 0 0 0 0 0 0 0 0 0 0
0 0 0 0 0 0 0 0 0 0 0 0 0 0 0 0 0 0 0 0 0 0 0 0 0 0 0 0 0 0 0 0 0 0 0 0 0 0 0 0 0 0 0
0 0 0 0 0 0 0 0 0 0 0 0 0 0 0 0 0 0 0 0 0 0 0 0 0 0 0 0 0 0 0 0 0 0 0 0 0 0 0 0 0 0 0
0 0 0 0 0 0 0 0 0 0 0 0 0 0 0 0 0 0 0 0 0 0 0 0 0 0 0 0 0 0 0 0 0 0 0 0 0 0 0 0 0 0 0
0 0 0 0 0 0 0 0 0 0 0 0 0 0 0 0 0 0 0 0 0 0 0 0 0 0 0 0 0 0 0 0 0 0 0 0 0 0 0 0 0 0 0
0 0 0 0 0 0 0 -0 0 0 0 0 0 0 0 0 0 0 0 0 0 0 0 0 0 0 0 0 0 0 0 0 0 0 0 0 0 0 0 0 0 0 0
0 0 0 0 0 0 0 0 0 0 0 0 0 0 0 0 0 0 0 0 0 0 0 0 0 0 0 0 0 0 0 0 0 0 0 0 0 0 0 0 0 0 0
0 0 0 0 0 0 0 0 0 0 0 0 0 0 0 0 0 0 0 0 0 0 0 0 0 0 0 0 0 0 0 0 0 0 0 0 0 0 0 0 0 0 0
0 0 0 0 0 0 0 0 0 0 0 0 0 0 0 0 0 0 0 0 0 0 0 0 0 0 0 0 0 0 0 0 0 0 0 0 0 0 0 0 0 0 0
0 0 0 0 0 0 0 0 0 0 0 0 0 0 0 0 0 0 0 0 0 0 0 0 0 0 0 0 0 0 0 0 0 0 0 0 0 0 0 0 0 0 0
0 0 0 0 0 0 0 0 0 0 0 0 0 0 0 0 0 0 0 0 0 0 0 0 0 0 0 0 0 0 0 0 0 0 0 0 0 0 0 0 0 0 0
0 0 0 0 0 0 0 0 0 0 0 0 0 0 0 0 0 0 0 0 0 0 0 0 0 0 0 0 0 0 0 0 0 0 0 0 0 0 0 0 0 0 0
0 0 0 0 0 0 0 0 0 0 0 0 0 0 0 0 0 0 0 0 0 0 0 0 0 0 0 0 0 0 0 0 0 0 0 0 0 0 0 0 0 0 0
Wind_Speed
2 2 2 2 2 2 2 2 2 2 1 2 2 2 2 2 2 2 3 3 3 3 3 3 4 3 3 3 3 3 3 3 6 6 4 4 4 5 5 5 5 6 7
2 1 1 1 1 1 2 2 2 2 1 2 1 1 2 2 3 3 3 3 3 4 4 4 5 3 4 3 3 4 4 4 5 8 6 4 5 4 5 6 6 6 6
1 1 1 1 1 1 2 1 1 1 2 1 2 2 3 3 3 3 3 4 4 4 4 4 5 4 5 4 4 4 4 4 4 6 7 5 4 4 5 5 6 5 6
1 1 1 2 2 2 2 1 2 2 2 2 3 3 3 3 4 4 4 4 4 4 4 4 5 5 6 5 5 5 4 4 4 5 6 5 5 4 3 4 6 4 6
1 1 2 2 1 1 2 2 2 2 3 3 3 3 3 3 4 4 4 4 4 4 4 4 5 6 7 6 5 4 4 4 4 5 5 5 5 4 4 4 6 6 6
1 1 1 1 1 1 2 2 3 3 3 3 4 4 4 4 5 6 5 4 4 5 5 4 4 5 6 8 9 8 7 6 5 5 6 7 7 6 5 5 5 6 6
1 1 1 1 1 2 2 2 2 3 2 3 3 3 4 5 7 7 6 4 4 4 5 4 4 4 5 5 7 9 9 10 10 7 7 8 8 6 6 7 6 7 8
2 2 2 2 2 2 2 2 3 2 3 3 3 3 4 5 7 7 7 4 4 5 4 4 5 6 5 5 5 6 6 6 8 6 7 8 7 6 6 6 7 7 7
3 3 3 2 3 3 3 3 3 3 3 3 3 3 4 6 7 8 7 3 4 5 5 5 5 6 8 9 6 6 7 6 8 9 10 10 11 11 8 4 4 5 7
4 3 3 3 3 4 4 4 3 3 4 3 4 4 5 5 8 8 7 3 4 5 4 4 6 8 9 9 6 6 7 7 5 6 6 8 8 8 9 5 4 5 5
3 2 2 3 4 4 3 3 3 3 3 3 4 4 4 5 7 8 8 4 4 5 5 4 5 9 10 10 9 6 8 7 5 5 5 5 5 4 4 4 4 4 5
1 2 3 3 3 2 3 3 2 2 3 3 4 5 4 4 5 7 9 8 7 5 5 4 5 9 10 10 8 8 10 7 3 3 4 5 5 4 4 4 4 5 6
2 3 3 2 2 2 3 3 2 2 2 3 3 4 4 3 5 8 9 9 10 6 5 7 8 9 9 7 8 9 6 3 3 4 5 5 4 4 4 4 4 5 6
2 3 2 2 2 2 2 2 2 3 3 3 4 5 4 4 4 4 4 5 6 6 4 4 8 9 8 6 5 5 4 3 4 5 5 5 4 3 4 4 4 4 5
3 2 2 2 2 2 2 3 4 4 4 4 4 4 4 5 6 7 5 4 3 3 3 2 3 3 3 3 4 4 3 3 4 4 4 5 5 4 4 4 3 3 4
3 3 2 2 2 2 2 3 5 6 7 8 8 6 5 7 9 8 8 9 8 6 3 3 4 4 4 4 5 5 4 4 4 4 5 5 5 5 5 4 4 4 5
4 3 2 2 2 2 2 3 4 4 6 7 8 8 8 9 9 9 9 9 8 6 3 4 4 5 5 5 5 5 5 5 4 4 5 5 5 5 5 5 4 5 5
4 3 3 2 2 2 3 3 3 3 4 4 5 8 9 9 9 9 8 6 4 4 3 4 5 5 5 5 5 6 6 5 4 5 5 5 5 5 5 5 5 6 6
3 2 2 2 2 2 2 2 2 3 3 4 4 4 6 8 9 8 6 3 4 4 4 5 5 5 5 5 5 5 6 6 6 5 5 6 5 5 6 6 6 7 6
2 3 2 2 2 2 2 2 2 3 3 4 4 4 3 3 3 4 3 3 4 5 5 5 5 5 5 5 5 5 5 6 6 6 6 6 5 5 6 7 6 6 6
2 2 2 2 2 2 2 3 3 3 3 4 5 5 6 4 4 5 4 4 5 6 6 6 5 5 5 5 5 6 7 6 6 6 6 6 5 5 5 6 6 6 6
2 2 2 2 2 2 2 3 3 3 4 5 5 5 7 4 4 5 5 5 5 5 5 5 6 5 5 5 5 6 6 7 6 6 6 6 6 5 5 5 6 5 5
2 2 2 2 2 2 3 3 3 4 5 5 5 4 4 5 5 5 6 5 5 5 5 5 6 6 5 5 6 6 7 7 7 6 6 7 6 5 5 6 7 7 7
2 2 2 2 2 2 3 3 4 4 4 5 5 5 5 5 5 6 6 5 5 5 5 5 6 8 9 8 6 6 7 8 7 7 8 7 7 6 6 6 7 7 7
2 2 2 2 2 3 3 3 4 4 4 4 5 5 5 5 6 6 5 5 6 6 7 7 6 7 9 10 10 9 10 12 10 7 6 6 7 8 7 7 7 7 6
2 2 2 2 2 3 3 3 4 4 4 5 5 5 5 5 6 6 6 5 6 6 7 7 8 9 10 9 11 12 12 12 11 9 6 5 6 6 6 5 6 5 5
Wind_Direction
208 196 191 194 186 181 194 209 211 206 200 215 237 250 259 272 278 258 253 252 252 264 269 265 270 275 273 270 264 259 259 255 267 283 284 289 287 291 300 296 290 288 289
203 176 180 188 172 175 208 218 208 216 214 218 231 256 268 273 271 254 253 251 247 257 266 269 273 273 270 271 266 263 262 259 261 278 288 290 282 287 291 291 293 292 289
169 165 186 202 195 207 222 218 212 221 228 226 229 249 259 265 264 250 246 252 250 254 259 262 269 270 272 273 267 264 264 267 262 269 282 286 282 286 294 293 289 286 291
165 175 221 233 221 222 229 230 229 227 234 238 246 252 255 259 261 256 250 252 254 257 259 261 264 261 265 270 268 268 266 269 268 269 275 282 284 286 284 292 297 290 291
153 205 245 251 244 232 235 239 238 235 241 241 248 255 262 261 255 256 253 256 260 266 269 268 269 271 272 272 273 271 263 261 266 271 277 283 284 292 291 293 293 300 291
191 238 256 259 251 250 254 250 247 247 249 247 248 253 260 261 268 271 273 266 268 273 279 282 282 281 283 284 285 283 274 264 265 268 275 276 283 286 290 290 294 300 297
231 250 256 248 251 254 254 252 250 251 252 255 259 260 264 267 277 281 281 278 274 273 275 280 285 286 283 281 287 288 285 280 271 264 266 270 277 278 280 283 281 280 281
237 250 256 251 260 271 267 266 266 259 253 259 265 265 271 274 283 286 288 278 273 271 268 269 273 280 278 281 279 280 279 280 279 270 261 268 272 274 267 272 280 286 285
247 251 251 245 252 259 263 267 268 270 270 266 270 269 274 281 284 288 287 274 273 274 272 269 270 274 281 287 285 282 286 285 290 282 277 280 284 290 291 289 289 293 289
251 254 256 251 248 251 256 264 267 265 268 274 276 270 270 277 284 286 283 272 275 278 277 274 272 277 285 290 281 277 280 284 291 297 293 292 289 286 285 275 263 266 279
260 262 261 254 253 255 260 262 264 264 273 273 274 277 272 274 285 286 283 274 270 279 282 281 277 284 286 287 286 277 279 291 292 290 290 290 289 282 278 273 265 256 259
266 262 263 261 261 262 262 268 268 262 269 274 278 283 277 277 278 283 283 279 282 273 273 277 280 290 293 296 295 292 297 303 295 291 287 285 284 284 284 281 275 269 264
242 255 262 264 262 257 255 258 263 252 259 272 275 278 282 279 279 282 280 281 282 276 270 282 294 299 300 299 299 298 299 294 284 279 278 279 281 284 288 285 279 277 276
237 252 256 256 266 264 258 243 238 242 251 261 265 271 279 280 273 275 271 275 279 280 286 296 297 297 296 297 300 297 288 278 273 272 278 284 287 284 281 282 283 288 286
242 252 260 256 256 261 259 251 248 243 239 249 251 254 269 277 278 284 291 283 281 282 306 305 295 294 291 288 285 284 282 279 273 273 277 283 285 284 283 282 275 278 272
236 246 248 254 256 258 269 284 270 268 277 273 274 274 273 280 298 298 293 292 295 300 301 278 280 279 278 280 281 281 275 271 271 271 270 273 278 281 284 282 275 268 274
226 237 242 245 252 258 262 268 289 295 285 282 284 285 286 294 297 299 299 298 296 300 274 268 271 275 277 278 277 277 278 275 274 270 268 270 271 273 276 276 274 272 271
225 229 229 237 242 246 250 257 265 280 296 297 293 290 292 293 297 298 300 305 295 290 260 263 267 271 275 278 279 278 278 278 271 268 266 264 262 262 266 267 266 266 271
219 226 227 233 239 244 250 255 258 263 271 287 302 304 299 298 298 295 298 269 264 269 267 266 265 267 270 272 274 276 275 275 272 269 266 262 258 257 260 262 263 264 265
223 230 221 223 231 235 240 245 253 260 268 275 278 283 295 295 287 289 276 261 260 263 263 264 267 267 268 268 269 270 271 272 273 270 271 267 261 255 257 260 261 263 264
216 226 221 226 230 233 237 242 249 254 260 268 272 276 283 276 272 272 270 264 262 266 268 268 269 268 265 264 263 265 268 269 267 264 266 267 265 264 263 264 266 265 267
201 205 214 227 239 243 247 248 251 254 259 266 277 285 285 277 270 270 270 268 265 264 264 266 269 267 262 260 260 263 264 266 267 264 263 266 264 263 265 264 264 267 271
195 208 228 237 239 250 257 253 251 255 261 265 272 279 277 271 272 272 273 274 274 271 268 262 265 269 265 260 257 254 258 261 262 261 263 266 264 262 261 263 265 267 269
205 211 225 244 250 249 254 260 262 263 266 268 271 272 273 274 275 276 277 277 275 272 268 265 264 267 269 269 265 259 257 260 259 255 252 257 260 260 260 259 260 261 265
205 217 228 239 246 255 262 267 268 270 272 274 275 277 279 281 282 282 280 278 277 277 276 272 269 268 269 270 270 269 269 271 267 259 250 249 252 252 253 255 257 262 265
209 221 233 241 247 253 258 268 273 274 275 277 280 283 286 287 287 287 287 284 283 283 282 278 272 273 274 274 272 273 273 272 267 258 248 246 248 250 249 251 254 258 265